Location: Skymont Scout Reservation
(35.4344°N, 85.8742°W)
Time: 02:25:15
(UTC-06:00)

ISS - All Passes

Search period start: 05 December 2016 00:00
Search period end: 15 December 2016 00:00
Orbit: 401 x 410 km, 51.6° (Epoch: 05 December)

Date Brightness Start Highest point End Pass type
(mag) Time Alt. Az. Time Alt. Az. Time Alt. Az.
05 Dec - 14:58:09 10° S 15:00:55 25° SE 15:03:42 10° ENE daylight
05 Dec - 16:34:30 10° W 16:37:21 26° NW 16:40:13 10° NNE daylight
05 Dec - 21:29:02 10° N 21:30:41 13° NNE 21:32:21 10° NE night (unlit)
05 Dec - 23:04:17 10° NW 23:07:35 88° SW 23:10:54 10° SE night (unlit)
06 Dec - 14:07:40 10° SSE 14:09:09 12° SE 14:10:37 10° E daylight
06 Dec - 15:42:06 10° WSW 15:45:18 49° NW 15:48:31 10° NE daylight
06 Dec - 22:12:25 10° NW 22:15:36 44° NE 22:18:46 10° ESE night (unlit)
06 Dec - 23:49:56 10° W 23:51:48 14° SW 23:53:40 10° SSW night (unlit)
07 Dec - 14:50:04 10° SW 14:53:19 77° SE 14:56:37 10° NE daylight
07 Dec - 16:28:20 10° WNW 16:30:10 14° NNW 16:32:00 10° N daylight
07 Dec - 21:20:44 10° NNW 21:23:31 24° NNE 21:26:16 10° E night (unlit)
07 Dec - 22:57:04 10° WNW 23:00:00 29° SW 23:02:54 10° SSE night (unlit)
08 Dec - 13:58:25 10° SSW 14:01:24 34° SE 14:04:25 10° ENE daylight
08 Dec - 15:35:20 10° W 15:37:57 22° NNW 15:40:36 10° NNE daylight
08 Dec - 20:29:15 10° N 20:31:19 15° NNE 20:33:23 10° ENE night (unlit)
08 Dec - 22:04:49 10° NW 22:08:06 65° SW 22:11:22 10° SE night (unlit)
09 Dec - 13:07:26 10° S 13:09:34 16° SE 13:11:44 10° E daylight
09 Dec - 14:42:44 10° WSW 14:45:50 38° NW 14:48:56 10° NNE daylight
09 Dec - 19:38:29 10° NNE 19:39:02 10° NNE 19:39:34 10° NNE night (unlit)
09 Dec - 21:12:51 10° NW 21:16:07 58° NE 21:19:22 10° ESE night (unlit)
09 Dec - 22:51:20 10° WSW 22:52:12 11° SW 22:53:05 10° SW night (unlit)
10 Dec - 13:50:31 10° SW 13:53:46 79° NW 13:57:04 10° NE daylight
10 Dec - 15:29:23 10° NW 15:30:44 12° NNW 15:32:05 10° N daylight
10 Dec - 20:21:03 10° NNW 20:24:01 30° NE 20:26:58 10° E night (unlit)
10 Dec - 21:57:45 10° WNW 22:00:23 22° SW 22:03:01 10° S night (unlit)
11 Dec - 12:58:40 10° SSW 13:01:48 45° SE 13:04:57 10° ENE daylight
11 Dec - 14:36:06 10° WNW 14:38:27 18° NNW 14:40:49 10° NNE daylight
11 Dec - 19:29:27 10° NNW 19:31:49 18° NNE 19:34:11 10° ENE night (unlit)
11 Dec - 21:05:18 10° WNW 21:08:29 47° SW 21:11:40 10° SSE night (unlit)
12 Dec - 12:07:20 10° S 12:09:53 21° SE 12:12:28 10° ENE daylight
12 Dec - 13:43:19 10° W 13:46:15 30° NW 13:49:13 10° NNE daylight
12 Dec - 18:38:11 10° N 18:39:32 12° NNE 18:40:52 10° NE visible
12 Dec - 20:13:11 10° NW 20:16:29 78° NE 20:19:47 10° SE night (unlit)
13 Dec - 11:17:29 10° SE 11:18:03 10° SE 11:18:38 10° ESE daylight
13 Dec - 12:50:55 10° WSW 12:54:07 59° NW 12:57:23 10° NE daylight
13 Dec - 14:30:40 10° NNW 14:31:12 10° NNW 14:31:44 10° NNW daylight
13 Dec - 19:21:18 10° NNW 19:24:23 37° NE 19:27:30 10° ESE night (unlit)
13 Dec - 20:58:26 10° W 21:00:40 17° SW 21:02:53 10° S night (unlit)
14 Dec - 11:58:52 10° SW 12:02:05 63° SE 12:05:20 10° NE daylight
14 Dec - 13:36:49 10° WNW 13:38:51 15° NNW 13:40:54 10° N daylight
14 Dec - 18:29:34 10° NNW 18:32:12 21° NNE 18:34:49 10° E visible
14 Dec - 20:05:42 10° WNW 20:08:45 35° SW 20:11:47 10° SSE night (unlit)
